Weather History for KCRE - March, 2012

Change the Weather History Date:

Wednesday, March 28, 2012

  Actual Average Record
Temperature  
Mean Temperature 66 °F 57 °F  
Max Temperature 73 °F 67 °F 78 °F (2007)
Min Temperature 58 °F 47 °F 27 °F (1955)
Degree Days  
Heating Degree Days 0 8  
Month to date heating degree days 112 314  
Since 1 July heating degree days 1693 2258  
Cooling Degree Days 1 0  
Month to date cooling degree days 35 0  
Year to date cooling degree days 35 0  
Growing Degree Days 15 (Base 50)    
Moisture  
Dew Point 55 °F    
Average Humidity 66    
Maximum Humidity 81    
Minimum Humidity 51    
Precipitation  
Precipitation 0.00 in 0.13 in 0.73 in (2005)
Month to date precipitation 3.14 3.54  
Year to date precipitation 6.38 10.65  
Sea Level Pressure  
Sea Level Pressure 30.12 in    
Wind  
Wind Speed 12 mph (SSW)    
Max Wind Speed 26 mph    
Max Gust Speed 35 mph    
Visibility 10 miles    
Events      
T = Trace of Precipitation, MM = Missing Value Source: NWS Daily Summary

Daily Weather History Graph

Daily Weather History Graph

Search for Another Location

Airport or City:

Trip Planner

Search our weather history database for the weather conditions in past years. The results will help you decide how hot, cold, wet, or windy it might be!

Date:

Astronomy

Mar. 28, 2012 Rise Set
Actual Time 7:07 AM EDT 7:32 PM EDT
Civil Twilight 6:42 AM EDT 7:57 PM EDT
Nautical Twilight 6:12 AM EDT 8:27 PM EDT
Astronomical Twilight 5:42 AM EDT 8:57 PM EDT
Moon 10:37 AM EDT 12:19 AM EDT
Length of Visible Light 13h 15m
Length of Day
12h 25m
Waxing Crescent, 30% of the Moon is Illuminated
Mar 28
Waxing Crescent
Mar 30
First Quarter
Apr 6
Full
Apr 13
Last Quarter
Apr 21
New

Hourly Weather History & Observations

Time (EDT) Temp. Dew Point Humidity Pressure Visibility Wind Dir Wind Speed Gust Speed Precip Events Conditions
12:53 AM 59.0 °F 41.0 °F 51% 30.29 in 10.0 mi SE 5.8 mph - N/A   Clear
1:53 AM 57.9 °F 42.1 °F 56% 30.27 in 10.0 mi SSE 5.8 mph - N/A   Clear
2:53 AM 59.0 °F 43.0 °F 55% 30.26 in 10.0 mi SSE 4.6 mph - N/A   Clear
3:53 AM 59.0 °F 44.1 °F 58% 30.24 in 10.0 mi SSE 5.8 mph - N/A   Clear
4:53 AM 59.0 °F 46.0 °F 62% 30.22 in 10.0 mi South 6.9 mph - N/A   Clear
5:53 AM 59.0 °F 46.9 °F 64% 30.22 in 10.0 mi South 5.8 mph - N/A   Clear
6:53 AM 59.0 °F 50.0 °F 72% 30.22 in 10.0 mi SSW 4.6 mph - N/A   Clear
7:53 AM 62.1 °F 53.1 °F 72% 30.22 in 10.0 mi SSW 6.9 mph - N/A   Clear
8:53 AM 64.9 °F 54.0 °F 68% 30.22 in 10.0 mi SW 9.2 mph - N/A   Clear
9:53 AM 66.9 °F 54.0 °F 63% 30.22 in 10.0 mi SSW 11.5 mph - N/A   Mostly Cloudy
10:53 AM 69.1 °F 55.0 °F 61% 30.21 in 10.0 mi SSW 15.0 mph - N/A   Partly Cloudy
11:53 AM 70.0 °F 57.0 °F 63% 30.20 in 10.0 mi SSW 13.8 mph - N/A   Scattered Clouds
12:53 PM 70.0 °F 57.9 °F 65% 30.17 in 10.0 mi SSW 12.7 mph - N/A   Mostly Cloudy
1:53 PM 70.0 °F 60.1 °F 71% 30.12 in 10.0 mi SSW 15.0 mph - N/A   Clear
2:53 PM 73.0 °F 62.1 °F 68% 30.07 in 10.0 mi SSW 15.0 mph - N/A   Clear
3:53 PM 73.0 °F 61.0 °F 66% 30.03 in 10.0 mi SW 23.0 mph 29.9 mph N/A   Clear
4:53 PM 71.1 °F 62.1 °F 73% 29.99 in 10.0 mi SW 20.7 mph 34.5 mph N/A   Clear
5:53 PM 71.1 °F 62.1 °F 73% 29.97 in 10.0 mi SW 18.4 mph - N/A   Clear
6:53 PM 69.1 °F 63.0 °F 81% 29.96 in 10.0 mi SW 18.4 mph 27.6 mph N/A   Clear
7:53 PM 68.0 °F 62.1 °F 81% 29.97 in 10.0 mi SW 17.3 mph 25.3 mph N/A   Clear
8:53 PM 68.0 °F 61.0 °F 78% 29.98 in 10.0 mi SW 17.3 mph 25.3 mph N/A   Clear
9:53 PM 66.9 °F 61.0 °F 81% 29.99 in 8.0 mi SW 12.7 mph - N/A   Clear
10:53 PM 66.9 °F 61.0 °F 81% 29.98 in 8.0 mi SW 10.4 mph - N/A   Clear
11:53 PM 66.0 °F 61.0 °F 84% 29.97 in 7.0 mi SW 9.2 mph - N/A   Clear